MEASAT-3A

Last updated on Sun Oct 19 2025 00:02:47 GMT+0000 (Coordinated Universal Time)

1 35362U 09032A 25291.24836525 .00000000 00000+0 00000+0 0 9995 2 35362 0.0156 71.1808 0002648 172.5296 32.6816 1.00269448 5601
UTC large
Height (km)
Speed (km/s)
/
Latitude / Longitude
Inclination (degrees)
Orbital Period (minutes)
Azimuth
Elevation
Range (km)
Doppler Factor

Next 0 passes for location: London (51.5072 / 0.1276)

Sorry there are no passes over London.